Weather in Livigno

Italy     46°32′15″N   10°08′13″E
temp.,
°C
wind,
m/s
gust,
m/s
humid.,
%
clouds,
%
prec.,
mm/h
press.,
hPa
HPBL,
m
25 january, mon
mon2501:00−18w113360 0.0 100420
04:00−15wsw1140100 0.1 100320
07:00−18n228999 0.6 100320
10:00−13nw2294100 0.5 1004113
13:00−10nnw3578100 1.6 1003900
16:00−12nnw3382100 1.0 100592
19:00−19nnw339870 1.0 100926
22:00−20nnw339824 0.0 101325
26 january, tue
tue2601:00−20nw339719 0.0 101624
04:00−20nw339720 0.0 101825
07:00−21nw339818 0.0 102025
10:00−16nnw33924 0.0 102198
13:00−12nnw34729 0.0 1020611
16:00−14nnw337822 0.0 102049
19:00−20nnw339511 0.0 102428
22:00−21nnw33950 0.0 102527
27 january, wed
wed2701:00−21nnw33820 0.0 102528
04:00−18nnw337469 0.0 102335
07:00−18nnw336768 0.0 102228
10:00−13nnw3373100 0.0 1021106
13:00−8nnw3384100 0.0 1019261
16:00−7nnw2293100 1.0 1017235
19:00−8nnw2296100 2.1 101832
22:00−8nw2296100 1.2 101847
28 january, thu
thu2801:00−8nw2295100 2.2 101739
04:00−10nw339499 0.3 101629
07:00−9nnw2394100 0.4 101529
10:00−5nw239195 0.2 1013110
13:00−1w229595 1.1 1012204
16:00−1sw2298100 1.4 1010153
19:00−2nw3397100 7.9 1012101
22:00−4w239696 2.4 101242
29 january, fri
fri2901:00−7wnw239063 2.5 101222
04:00−6wnw228469 0.0 101021
07:00−4w227584 0.1 100922
10:00−1w1284100 0.1 100946
13:00−1nnw22100100 1.5 1008187
16:00−2n4495100 1.9 1007319
19:00−5nnw3395100 2.2 100946
22:00−9wnw239450 0.0 101025